Change the Weather History Date:

Monday, April 7, 2014

  Actual Average (KSAV) Record (KSAV)
Temperature  
Mean Temperature 66 °F 64 °F  
Max Temperature 73 °F 76 °F 92 °F (1967)
Min Temperature 59 °F 52 °F 35 °F (1950)
Degree Days  
Heating Degree Days 0 4  
Month to date heating degree days 28  
Since 1 July heating degree days 1755  
Cooling Degree Days 1 2  
Month to date cooling degree days 14  
Year to date cooling degree days 56  
Growing Degree Days 16 (Base 50)    
Moisture  
Dew Point 68 °F    
Average Humidity 96    
Maximum Humidity 100    
Minimum Humidity 88    
Precipitation  
Precipitation 0.00 in 0.11 in 3.03 in (2003)
Month to date precipitation 0.77  
Year to date precipitation 10.98  
Sea Level Pressure  
Sea Level Pressure 29.86 in    
Wind  
Wind Speed 2 mph (SE)    
Max Wind Speed 21 mph    
Max Gust Speed 34 mph    
Visibility 5 miles    
Events Fog , Rain , Thunderstorm    
T = Trace of Precipitation, MM = Missing Value Source: NWS Daily Summary

Daily Weather History Graph

Daily Weather History Graph

Search for Another Location

Airport or City:

Trip Planner

Search our weather history database for the weather conditions in past years. The results will help you decide how hot, cold, wet, or windy it might be!

Date:

Astronomy

Apr. 07, 2014 Rise Set
Actual Time 7:08 AM EDT 7:51 PM EDT
Civil Twilight 6:43 AM EDT 8:16 PM EDT
Nautical Twilight 6:14 AM EDT 8:45 PM EDT
Astronomical Twilight 5:44 AM EDT 9:15 PM EDT
Moon 1:11 PM EDT (4/7) 2:18 AM EDT (4/7)
Length of Visible Light 13h 32m
Length of Day
12h 43m
First Quarter, 53% of the Moon is Illuminated
Apr 7
First Quarter
Apr 15
Full
Apr 22
Last Quarter
Apr 29
New
May 6
First Quarter

Hourly Weather History & Observations

Time (EDT) Temp. Dew Point Humidity Pressure Visibility Wind Dir Wind Speed Gust Speed Precip Events Conditions
12:15 AM 59.0 °F 59.0 °F 100% 30.02 in 5.0 mi Calm Calm - N/A   Overcast
12:35 AM 59.0 °F 59.0 °F 100% 30.02 in 5.0 mi Calm Calm - N/A   Overcast
12:55 AM 59.0 °F 59.0 °F 100% 30.00 in 5.0 mi Calm Calm - N/A   Overcast
1:15 AM - - N/A% 29.98 in 2.5 mi East 4.6 mph - N/A   Overcast
1:35 AM - - N/A% 29.97 in 1.8 mi Calm Calm - N/A   Overcast
1:55 AM - - N/A% 29.96 in 1.5 mi Calm Calm - N/A   Overcast
2:15 AM - - N/A% 29.95 in 1.2 mi Calm Calm - N/A   Overcast
2:35 AM - - N/A% 29.94 in 1.0 mi Calm Calm - N/A   Overcast
2:55 AM - - N/A% 29.92 in 1.0 mi East 3.5 mph - N/A   Overcast
3:15 AM - - N/A% 29.92 in 1.0 mi Calm Calm - N/A   Overcast
3:35 AM - - N/A% 29.91 in 0.8 mi East 3.5 mph - N/A   Overcast
3:55 AM - - N/A% 29.90 in 0.5 mi Calm Calm - N/A Fog Fog
4:15 AM - - N/A% 29.90 in 0.5 mi ESE 3.5 mph - N/A Fog Fog
4:35 AM - - N/A% 29.90 in 0.5 mi ESE 3.5 mph - N/A Fog Fog
4:55 AM - - N/A% 29.90 in 0.8 mi Calm Calm - N/A   Overcast
5:15 AM - - N/A% 29.90 in 0.8 mi Calm Calm - N/A   Overcast
5:35 AM - - N/A% 29.90 in 1.0 mi Calm Calm - N/A   Overcast
5:55 AM - - N/A% 29.90 in 1.5 mi East 3.5 mph - N/A   Overcast
6:15 AM - - N/A% 29.89 in 1.2 mi Calm Calm - N/A   Overcast
6:35 AM - - N/A% 29.90 in 1.0 mi Calm Calm - N/A   Overcast
6:55 AM - - N/A% 29.89 in 0.8 mi Calm Calm - N/A   Overcast
7:15 AM - - N/A% 29.89 in 1.0 mi Calm Calm - N/A   Overcast
7:35 AM - - N/A% 29.89 in 0.8 mi Calm Calm - N/A   Overcast
8:15 AM - - N/A% 29.89 in 1.0 mi Calm Calm - N/A   Overcast
8:35 AM - - N/A% 29.89 in 0.8 mi Calm Calm - N/A   Overcast
8:55 AM - - N/A% 29.88 in 1.0 mi Calm Calm - N/A   Overcast
9:15 AM - - N/A% 29.86 in 1.8 mi SSE 4.6 mph - N/A   Overcast
9:35 AM - - N/A% 29.87 in 4.0 mi Calm Calm - N/A   Haze
9:55 AM - - N/A% 29.87 in 5.0 mi Calm Calm - N/A   Haze
10:15 AM - - N/A% 29.87 in 7.0 mi SSW 3.5 mph - N/A   Overcast
10:35 AM - - N/A% 29.87 in 7.0 mi Calm Calm - N/A   Overcast
10:55 AM 68.0 °F 68.0 °F 100% 29.89 in 7.0 mi Calm Calm - N/A   Mostly Cloudy
11:15 AM 69.8 °F 69.8 °F 100% 29.88 in 7.0 mi Calm Calm - N/A   Scattered Clouds
11:55 AM 71.6 °F 71.6 °F 100% 29.87 in 10.0 mi Calm Calm - N/A   Clear
12:15 PM 71.6 °F 71.6 °F 100% 29.86 in 10.0 mi Calm Calm - N/A   Clear
12:35 PM 71.6 °F 71.6 °F 100% 29.86 in 10.0 mi Calm Calm - N/A   Clear
12:55 PM 71.6 °F 71.6 °F 100% 29.85 in 10.0 mi Calm Calm - N/A   Clear
1:15 PM 73.4 °F 71.6 °F 94% 29.84 in 10.0 mi South 9.2 mph - N/A   Clear
1:35 PM 73.4 °F 69.8 °F 88% 29.83 in 10.0 mi SSE 5.8 mph - N/A   Scattered Clouds
1:55 PM 73.4 °F 69.8 °F 88% 29.82 in 10.0 mi SSE 5.8 mph - N/A   Mostly Cloudy
2:15 PM 73.4 °F 69.8 °F 88% 29.83 in 10.0 mi Calm Calm - N/A   Overcast
2:35 PM 73.4 °F 69.8 °F 88% 29.82 in 10.0 mi Calm Calm - N/A   Mostly Cloudy
2:55 PM 73.4 °F 69.8 °F 88% 29.82 in 10.0 mi Calm Calm - N/A   Mostly Cloudy
3:15 PM 73.4 °F 71.6 °F 94% 29.81 in 10.0 mi North 3.5 mph - N/A Thunderstorm Overcast
3:35 PM 71.6 °F 71.6 °F 100% 29.80 in 10.0 mi North 18.4 mph 21.9 mph N/A Rain , Thunderstorm Light Thunderstorms and Rain
3:55 PM 64.4 °F 64.4 °F 100% 29.86 in 2.5 mi WNW 20.7 mph 34.5 mph N/A Rain , Thunderstorm Heavy Thunderstorms and Rain
4:35 PM - - N/A% 29.85 in 4.0 mi NE 5.8 mph - N/A Rain Heavy Rain
4:55 PM - - N/A% 29.84 in 5.0 mi East 5.8 mph - N/A Rain Rain
5:15 PM - - N/A% 29.84 in 5.0 mi ESE 5.8 mph - N/A Rain Rain
5:35 PM - - N/A% 29.83 in 7.0 mi SE 3.5 mph - N/A Rain Rain
5:55 PM - - N/A% 29.82 in 4.0 mi East 3.5 mph - N/A Rain Heavy Rain
6:15 PM - - N/A% 29.81 in 5.0 mi East 4.6 mph - N/A Rain Rain
6:35 PM - - N/A% 29.81 in 4.0 mi Calm Calm - N/A Rain Rain
6:55 PM - - N/A% 29.81 in 4.0 mi ESE 3.5 mph - N/A Rain Heavy Rain
7:15 PM - - N/A% 29.82 in 4.0 mi ESE 5.8 mph - N/A Rain Heavy Rain
7:35 PM - - N/A% 29.79 in 5.0 mi ESE 8.1 mph - N/A Rain Rain
7:55 PM - - N/A% 29.80 in 10.0 mi SSE 4.6 mph - N/A Rain Light Rain
8:15 PM - - N/A% 29.80 in 10.0 mi SSE 4.6 mph - N/A   Light Drizzle
8:35 PM - - N/A% 29.79 in 7.0 mi ESE 4.6 mph - N/A Rain Rain
8:55 PM - - N/A% 29.77 in 10.0 mi ESE 6.9 mph - N/A Rain Light Rain
9:15 PM - - N/A% 29.77 in 10.0 mi SE 3.5 mph - N/A Rain Light Rain
9:35 PM - - N/A% 29.77 in 10.0 mi Calm Calm - N/A   Overcast
9:55 PM - - N/A% 29.77 in 10.0 mi Calm Calm - N/A   Mostly Cloudy
10:15 PM - - N/A% 29.80 in 10.0 mi Calm Calm - N/A   Mostly Cloudy
10:35 PM - - N/A% 29.80 in 10.0 mi South 3.5 mph - N/A Rain Light Rain
10:55 PM - - N/A% 29.81 in 10.0 mi Calm Calm - N/A   Overcast
11:15 PM - - N/A% 29.81 in 10.0 mi South 4.6 mph - N/A Rain Light Rain
11:35 PM - - N/A% 29.79 in 10.0 mi South 4.6 mph - N/A Rain Light Rain
11:55 PM - - N/A% 29.78 in 10.0 mi South 4.6 mph - N/A Rain Rain